Terug naar catalogus

STARLINK-33949

ActiefCommunicatieVLEO
NORAD 64105·PAYLOAD·🇺🇸 United States

Gelanceerd May 23, 2025 vanaf Vandenberg Space Force Base

Loading…

Volgende Passages (komende 24 uur)

TLE

VersSource: CelesTrak SupGP

Epoch: Sep 15, 2026, 03:45 UTC

1 64105C 25110K   26258.15673611 -.00053516  00000+0 -17212-2 0  2582
2 64105  53.1579 225.4209 0001349  89.6448 100.6815 15.31724110    15

Volg STARLINK-33949 in realtime met AllMySat

Download on the App Store